| time (UTC) | temp C | wind direction | speed KPH | gust KPH | rain 1hr cm | rain 24hr cm | rain mn cm | humidity % | barometer mb |
| 20260509134603 | 9 | 187 | 1.6 | 11.3 | 0.00 | 0.43 | 0.00 | 88 | 1008.9 |
| 20260509133057 | 9 | 200 | 3.2 | 11.3 | 0.00 | 0.43 | 0.00 | 89 | 1009.3 |
| 20260509131553 | 8 | 83 | 3.2 | 9.7 | 0.00 | 0.43 | 0.00 | 90 | 1009.3 |
| 20260509130050 | 8 | 158 | 3.2 | 9.7 | 0.00 | 0.46 | 0.00 | 90 | 1009.4 |
| 20260509124549 | 8 | 160 | 8.0 | 12.9 | 0.00 | 0.46 | 0.00 | 90 | 1009.3 |
| 20260509123052 | 8 | 128 | 6.4 | 16.1 | 0.00 | 0.46 | 0.00 | 90 | 1009.3 |
| 20260509121542 | 7 | 127 | 4.8 | 12.9 | 0.00 | 0.46 | 0.00 | 88 | 1009.4 |
| 20260509120039 | 7 | 148 | 6.4 | 14.5 | 0.00 | 0.46 | 0.00 | 87 | 1009.7 |
| 20260509114541 | 7 | 195 | 4.8 | 12.9 | 0.00 | 0.46 | 0.00 | 85 | 1009.7 |
| 20260509113043 | 7 | 143 | 3.2 | 9.7 | 0.00 | 0.46 | 0.00 | 85 | 1009.9 |
| 20260509111545 | 7 | 170 | 3.2 | 11.3 | 0.00 | 0.46 | 0.00 | 84 | 1009.9 |
| 20260509110034 | 7 | 127 | 4.8 | 9.7 | 0.00 | 0.46 | 0.00 | 84 | 1009.7 |
| 20260509104534 | 7 | 152 | 1.6 | 6.4 | 0.00 | 0.46 | 0.00 | 84 | 1009.8 |
| 20260509103040 | 7 | 129 | 1.6 | 8.0 | 0.00 | 0.46 | 0.00 | 84 | 1009.7 |
| 20260509101533 | 7 | 153 | 0.0 | 8.0 | 0.00 | 0.46 | 0.00 | 83 | 1009.7 |
| 20260509100032 | 6 | 143 | 0.0 | 1.6 | 0.00 | 0.46 | 0.00 | 85 | 1009.7 |
| 20260509094530 | 6 | 141 | 1.6 | 6.4 | 0.00 | 0.46 | 0.00 | 85 | 1009.6 |
| 20260509093026 | 6 | 149 | 1.6 | 8.0 | 0.00 | 0.46 | 0.00 | 85 | 1009.5 |
| 20260509091527 | 6 | 150 | 0.0 | 4.8 | 0.00 | 0.46 | 0.00 | 84 | 1009.3 |
| 20260509090022 | 6 | 149 | 0.0 | 3.2 | 0.00 | 0.46 | 0.00 | 84 | 1009.7 |
| 20260509084519 | 5 | 153 | 0.0 | 3.2 | 0.00 | 0.46 | 0.00 | 85 | 1010.0 |
| 20260509083024 | 5 | 148 | 0.0 | 1.6 | 0.00 | 0.46 | 0.00 | 88 | 1010.3 |
| 20260509081517 | 4 | 148 | 0.0 | 0.0 | 0.00 | 0.46 | 0.00 | 89 | 1010.2 |
| 20260509080014 | 5 | 148 | 0.0 | 0.0 | 0.00 | 0.46 | 0.00 | 87 | 1010.3 |
| 20260509074514 | 5 | 148 | 0.0 | 0.0 | 0.00 | 0.46 | 0.00 | 86 | 1010.4 |
| 20260509073010 | 5 | 148 | 0.0 | 0.0 | 0.00 | 0.46 | 0.00 | 86 | 1010.5 |
| 20260509071510 | 5 | 148 | 0.0 | 0.0 | 0.00 | 0.46 | 0.00 | 86 | 1010.6 |
| 20260509070008 | 5 | 148 | 0.0 | 0.0 | 0.00 | 0.53 | 0.00 | 85 | 1010.5 |
| 20260509064518 | 5 | 149 | 0.0 | 1.6 | 0.00 | 0.53 | 0.00 | 84 | 1010.6 |
| 20260509063004 | 5 | 149 | 0.0 | 0.0 | 0.00 | 0.53 | 0.00 | 82 | 1010.8 |
| 20260509061505 | 6 | 149 | 0.0 | 3.2 | 0.00 | 0.53 | 0.00 | 83 | 1011.0 |
| 20260509060100 | 6 | 155 | 0.0 | 3.2 | 0.00 | 0.58 | 0.00 | 81 | 1011.2 |
| 20260509054604 | 6 | 153 | 0.0 | 1.6 | 0.00 | 0.58 | 0.00 | 81 | 1011.3 |
| 20260509053101 | 6 | 149 | 0.0 | 1.6 | 0.00 | 0.58 | 0.00 | 82 | 1011.5 |
| 20260509051556 | 6 | 146 | 0.0 | 3.2 | 0.00 | 0.58 | 0.00 | 83 | 1011.8 |
| 20260509050054 | 6 | 152 | 0.0 | 4.8 | 0.00 | 0.58 | 0.00 | 82 | 1011.7 |
| 20260509044556 | 6 | 139 | 0.0 | 3.2 | 0.00 | 0.58 | 0.00 | 81 | 1011.9 |
| 20260509043050 | 6 | 154 | 0.0 | 3.2 | 0.00 | 0.58 | 0.00 | 83 | 1012.0 |
| 20260509041548 | 5 | 146 | 0.0 | 1.6 | 0.00 | 0.58 | 0.00 | 82 | 1012.0 |
| 20260509040045 | 5 | 158 | 0.0 | 3.2 | 0.00 | 0.58 | 0.58 | 84 | 1012.0 |
| 20260509034547 | 5 | 143 | 0.0 | 1.6 | 0.00 | 0.58 | 0.58 | 83 | 1012.0 |
| 20260509033044 | 5 | 110 | 0.0 | 1.6 | 0.00 | 0.58 | 0.58 | 80 | 1012.1 |
| 20260509031544 | 5 | 147 | 0.0 | 4.8 | 0.00 | 0.58 | 0.58 | 80 | 1012.1 |
| 20260509030044 | 5 | 143 | 0.0 | 1.6 | 0.00 | 0.58 | 0.58 | 83 | 1012.1 |
| 20260509024543 | 5 | 155 | 0.0 | 4.8 | 0.00 | 0.58 | 0.58 | 83 | 1012.3 |
| 20260509023043 | 5 | 153 | 0.0 | 3.2 | 0.00 | 0.58 | 0.58 | 85 | 1012.3 |
| 20260509021542 | 5 | 146 | 0.0 | 1.6 | 0.00 | 0.58 | 0.58 | 86 | 1012.3 |
| 20260509020041 | 5 | 149 | 0.0 | 1.6 | 0.00 | 0.58 | 0.58 | 87 | 1012.3 |
| 20260509014540 | 5 | 149 | 0.0 | 0.0 | 0.00 | 0.58 | 0.58 | 87 | 1012.3 |
| 20260509013039 | 5 | 149 | 0.0 | 0.0 | 0.00 | 0.58 | 0.58 | 87 | 1012.1 |
| 20260509011539 | 5 | 149 | 0.0 | 0.0 | 0.00 | 0.58 | 0.58 | 84 | 1011.9 |
| 20260509010039 | 6 | 149 | 0.0 | 0.0 | 0.00 | 0.58 | 0.58 | 80 | 1011.6 |
| 20260509004540 | 6 | 149 | 0.0 | 0.0 | 0.00 | 0.58 | 0.58 | 76 | 1011.4 |
| 20260509003040 | 7 | 149 | 0.0 | 0.0 | 0.00 | 0.58 | 0.58 | 71 | 1011.3 |
| 20260509001537 | 8 | 149 | 0.0 | 0.0 | 0.00 | 0.58 | 0.58 | 63 | 1011.2 |
| 20260509000036 | 10 | 149 | 0.0 | 0.0 | 0.00 | 0.58 | 0.58 | 54 | 1011.1 |
| 20260508234535 | 11 | 149 | 0.0 | 1.6 | 0.00 | 0.58 | 0.58 | 48 | 1011.0 |
| 20260508233035 | 11 | 149 | 0.0 | 3.2 | 0.00 | 0.58 | 0.58 | 44 | 1010.8 |
| 20260508231542 | 11 | 278 | 0.0 | 1.6 | 0.00 | 0.58 | 0.58 | 43 | 1010.9 |
| 20260508230039 | 11 | 271 | 1.6 | 8.0 | 0.00 | 0.58 | 0.58 | 43 | 1010.8 |
| 20260508224533 | 11 | 306 | 1.6 | 8.0 | 0.00 | 0.58 | 0.58 | 43 | 1010.7 |
| 20260508223040 | 12 | 6 | 0.0 | 4.8 | 0.00 | 0.58 | 0.58 | 43 | 1010.8 |
| 20260508221532 | 12 | 254 | 0.0 | 4.8 | 0.00 | 0.58 | 0.58 | 42 | 1011.0 |
| 20260508220036 | 12 | 293 | 4.8 | 11.3 | 0.00 | 0.58 | 0.58 | 43 | 1011.0 |
| 20260508214527 | 12 | 134 | 1.6 | 8.0 | 0.00 | 0.58 | 0.58 | 44 | 1011.2 |
| 20260508213026 | 12 | 46 | 4.8 | 11.3 | 0.00 | 0.58 | 0.58 | 45 | 1011.2 |
| 20260508211525 | 12 | 314 | 3.2 | 9.7 | 0.00 | 0.58 | 0.58 | 45 | 1011.3 |
| 20260508210023 | 12 | 233 | 1.6 | 8.0 | 0.00 | 0.58 | 0.58 | 47 | 1011.3 |
| 20260508204519 | 11 | 316 | 3.2 | 9.7 | 0.00 | 0.58 | 0.58 | 47 | 1011.5 |
| 20260508203023 | 11 | 266 | 3.2 | 11.3 | 0.00 | 0.58 | 0.58 | 50 | 1011.6 |
| 20260508201517 | 11 | 35 | 1.6 | 6.4 | 0.00 | 0.58 | 0.58 | 52 | 1011.6 |
| 20260508200015 | 11 | 67 | 4.8 | 16.1 | 0.00 | 0.58 | 0.58 | 51 | 1011.8 |
| 20260508194512 | 11 | 254 | 6.4 | 12.9 | 0.00 | 0.58 | 0.58 | 54 | 1012.0 |
| 20260508193008 | 10 | 206 | 4.8 | 12.9 | 0.00 | 0.58 | 0.58 | 61 | 1012.1 |
| 20260508191521 | 10 | 301 | 4.8 | 14.5 | 0.00 | 0.58 | 0.58 | 60 | 1012.2 |
| 20260508190005 | 9 | 253 | 6.4 | 14.5 | 0.00 | 0.58 | 0.58 | 62 | 1012.1 |
| 20260508184502 | 9 | 240 | 4.8 | 11.3 | 0.00 | 0.58 | 0.58 | 66 | 1012.3 |
| 20260508183108 | 8 | 335 | 1.6 | 16.1 | 0.00 | 0.58 | 0.58 | 70 | 1012.5 |
| 20260508183001 | 8 | 321 | 1.6 | 16.1 | 0.00 | 0.58 | 0.58 | 69 | 1012.6 |
| 20260508181600 | 8 | 244 | 3.2 | 12.9 | 0.00 | 0.58 | 0.58 | 73 | 1012.6 |
| 20260508180128 | 8 | 151 | 4.8 | 16.1 | 0.00 | 0.58 | 0.58 | 72 | 1012.7 |
| 20260508174611 | 8 | 338 | 4.8 | 17.7 | 0.00 | 0.58 | 0.58 | 72 | 1012.5 |
| 20260508173055 | 7 | 230 | 4.8 | 12.9 | 0.00 | 0.58 | 0.58 | 74 | 1012.8 |
| 20260508171554 | 7 | 283 | 3.2 | 12.9 | 0.00 | 0.58 | 0.58 | 76 | 1012.8 |
| 20260508170054 | 7 | 259 | 4.8 | 11.3 | 0.00 | 0.58 | 0.58 | 78 | 1013.0 |
| 20260508164553 | 7 | 180 | 4.8 | 22.5 | 0.00 | 0.58 | 0.58 | 78 | 1013.1 |
| 20260508163048 | 7 | 203 | 3.2 | 16.1 | 0.00 | 0.58 | 0.58 | 83 | 1013.1 |
| 20260508161545 | 6 | 246 | 3.2 | 9.7 | 0.00 | 0.58 | 0.58 | 85 | 1013.1 |
| 20260508160043 | 5 | 298 | 1.6 | 11.3 | 0.00 | 0.58 | 0.58 | 84 | 1013.1 |
| 20260508154544 | 5 | 278 | 4.8 | 11.3 | 0.00 | 0.58 | 0.58 | 88 | 1013.2 |
| 20260508153041 | 5 | 241 | 4.8 | 12.9 | 0.03 | 0.58 | 0.58 | 89 | 1013.1 |
| 20260508151540 | 3 | 279 | 4.8 | 11.3 | 0.05 | 0.58 | 0.58 | 91 | 1013.3 |
| 20260508150039 | 3 | 222 | 3.2 | 11.3 | 0.05 | 0.58 | 0.58 | 93 | 1013.3 |
| 20260508144539 | 3 | 13 | 0.0 | 11.3 | 0.25 | 0.58 | 0.58 | 92 | 1013.4 |
| 20260508143039 | 3 | 295 | 4.8 | 16.1 | 0.36 | 0.53 | 0.53 | 92 | 1013.4 |
| 20260508141537 | 3 | 355 | 0.0 | 6.4 | 0.38 | 0.53 | 0.53 | 94 | 1013.3 |
| 20260508140035 | 2 | 186 | 1.6 | 4.8 | 0.41 | 0.53 | 0.53 | 92 | 1013.2 |